[[{"header":{"parameterUnit":"m.s-1","parameterCategory":2,"la1":30.2991,"la2":30.254,"lo1":-89.0895,"lo2":-89.0444,"dx":0.0017,"dy":0.0017,"nx":28,"ny":28,"refTime":"2023-01-07T03:00:00:Z","depth":"0","parameterNumber":2,"parameterNumberName":"U-component_of_CURRENTS"},"data":[0,0,0,0,0,0,0,0,0,0,0,0,0,0,0,0,0,0,0,0,0,0,0,0,0,0,0,0,0,0,0,0,0,0,0,0,0,0,0,0,0,0,0,0,0,0,0,0,0,0,0,0,0,0,0,0,0,0,0.2748,0.2749,0,0.2793,0.2793,0.2793,0.278,0.2779,0.2779,0.2778,0.2761,0.2761,0.2761,0,0,0,0,0,0,0,0,0,0,0,0,0,0.2629,0.2631,0.2748,0.2749,0.275,0.2793,0.2793,0.2793,0.278,0.2779,0.2778,0.2778,0.2761,0.2761,0.2761,0,0,0,0,0,0,0,0,0,0,0,0,0,0.2674,0.2632,0.2748,0.2752,0.2753,0.2793,0.2793,0.2793,0.278,0.2779,0.2778,0.2777,0.2761,0.2761,0.2761,0.2778,0,0,0.2761,0.2761,0,0,0,0,0,0,0,0,0.2671,0.2678,0.275,0.2752,0.2753,0.2784,0.2745,0.2787,0.278,0.2765,0.2778,0.2777,0.2766,0.2766,0.2771,0.2777,0.2776,0.2761,0.2761,0.2761,0.2761,0,0,0,0,0,0,0,0.2668,0.2676,0.2761,0.2751,0.2753,0.2744,0.2749,0.2753,0.2765,0.2766,0.2766,0.2779,0.2766,0.2771,0.277,0.2776,0.2761,0.2761,0.2761,0.2761,0.2817,0.2818,0,0,0,0,0,0,0.2674,0.2673,0.276,0.2763,0.2714,0.2747,0.2753,0.2771,0.2766,0.2767,0.2779,0.2778,0.2771,0.277,0.2769,0.281,0.2761,0.2761,0.2761,0.2815,0.2817,0.2819,0,0,0,0,0,0,0.2671,0.2682,0.2758,0.2722,0.2732,0.2751,0.2771,0.2773,0.2782,0.2778,0.2776,0.2788,0.277,0.2769,0.2785,0.2808,0.2761,0.2761,0.2814,0.2816,0.2818,0.2877,0,0,0,0,0,0,0.2668,0.268,0.2693,0.2723,0.2734,0.2789,0.2772,0.2774,0.2792,0.2791,0.2785,0.2782,0.2769,0.2785,0.2785,0.2807,0.2761,0.2812,0.2815,0.2817,0.2874,0.2881,0.2888,0,0,0,0,0,0.2663,0.2682,0.2694,0.2704,0.2752,0.279,0.2795,0.2802,0.2794,0.2805,0.2804,0.2782,0.2802,0.2787,0.2786,0.2809,0.281,0.2814,0.2817,0.287,0.288,0.2888,0,0,0,0,0,0,0.2625,0.2684,0.2697,0.273,0.2763,0.2789,0.28,0.2809,0.2818,0.2813,0.2801,0.28,0.2826,0.2811,0.2794,0.2834,0.2803,0.2806,0.2844,0.2852,0.2859,0.2838,0.2761,0,0,0,0,0,0.263,0.2662,0.2711,0.2735,0.2755,0.278,0.2795,0.2806,0.2822,0.2824,0.2825,0.2827,0.284,0.284,0.2848,0.2867,0.293,0.2881,0.2888,0.2894,0.2878,0.3024,0.3044,0.2829,0.2829,0.2829,0,0,0.2619,0.2656,0.2673,0.273,0.2752,0.2783,0.2786,0.2815,0.2835,0.2821,0.2842,0.2855,0.2853,0.2879,0.2888,0.2867,0.2999,0.2899,0.2904,0.2883,0.303,0.3051,0.307,0.2831,0.2831,0.2831,0,0,0.2615,0.2652,0.268,0.2712,0.2762,0.2785,0.2798,0.2838,0.285,0.2881,0.2881,0.2906,0.2918,0.2927,0.293,0.298,0.3038,0.2988,0.2999,0.3143,0.3162,0.318,0.3334,0.3365,0.2985,0.2985,0.2985,0,0.2597,0.2645,0.269,0.2723,0.2749,0.2788,0.2815,0.2839,0.2878,0.2894,0.2891,0.2942,0.2938,0.2976,0.2988,0.2995,0.3099,0.2967,0.3155,0.3173,0.319,0.3344,0.3377,0.2988,0.2988,0.2987,0.2987,0,0.2622,0.2655,0.2672,0.2732,0.2764,0.2795,0.2843,0.2874,0.2897,0.2921,0.2973,0.299,0.3025,0.3029,0.3015,0.3122,0.317,0.3159,0.3137,0.3216,0.3373,0.3407,0.2993,0.2992,0.2991,0.299,0,0,0.259,0.2674,0.2678,0.2703,0.2773,0.2799,0.2844,0.2898,0.2938,0.2971,0.3033,0.3044,0.3075,0.308,0.3095,0.318,0.3398,0.3217,0.3223,0.3376,0.376,0.3733,0.3767,0.3447,0.3452,0.3456,0.3839,0,0.2593,0.2646,0.2694,0.2735,0.2766,0.2819,0.2862,0.2912,0.2966,0.304,0.3068,0.3137,0.3094,0.3143,0.3224,0.3366,0.3482,0.3296,0.3651,0.3662,0.3633,0.3802,0.372,0.4048,0.3872,0.3878,0.3882,0,0.2607,0.264,0.2682,0.2747,0.2767,0.2798,0.2883,0.2929,0.3031,0.3083,0.3155,0.3214,0.3338,0.33,0.3583,0.3485,0.362,0.3712,0.373,0.3693,0.3695,0.3931,0.4116,0.3977,0.3934,0.3929,0.3926,0,0.2566,0.2633,0.2663,0.2684,0.2765,0.2792,0.2838,0.2932,0.3005,0.3135,0.3236,0.3361,0.3499,0.3656,0.383,0.3762,0.4158,0.4102,0.42,0.4202,0.4188,0.4177,0.4273,0.4311,0.431,0.4309,0.4308,0,0.2558,0.2574,0.2644,0.2655,0.2707,0.2765,0.2849,0.2911,0.3051,0.3161,0.3268,0.3415,0.3605,0.3832,0.3937,0.4199,0.4277,0.4244,0.4309,0.4208,0.4196,0.4111,0.4039,0.4324,0.432,0.4318,0.4315,0,0.251,0.2553,0.2592,0.2665,0.269,0.2726,0.2863,0.2934,0.3072,0.3241,0.3307,0.3561,0.3858,0.4034,0.4347,0.4386,0.4489,0.4649,0.4514,0.4551,0.4442,0.4377,0.4387,0.4252,0.4846,0.4848,0.4849,0,0.2491,0.2505,0.2587,0.262,0.2652,0.2727,0.2789,0.2924,0.3028,0.3322,0.3416,0.3751,0.3944,0.4393,0.4564,0.4808,0.4603,0.4843,0.4645,0.4459,0.4439,0.4192,0.4056,0.4698,0.4698,0.4698,0.4698,0,0.2457,0.249,0.2524,0.2615,0.2673,0.2737,0.2841,0.2926,0.3111,0.3273,0.3523,0.3698,0.414,0.4376,0.4689,0.4798,0.46,0.4848,0.4719,0.4381,0.4063,0.3956,0.4423,0.4699,0.4699,0.4699,0.4698,0.4698,0.2435,0.2468,0.255,0.2616,0.2681,0.2738,0.2756,0.2891,0.3042,0.3241,0.3494,0.3725,0.4148,0.4577,0.4641,0.473,0.4627,0.4647,0.4618,0.4406,0.414,0.459,0.4867,0.4868,0.4868,0.4869,0.487,0,0.2444,0.249,0.2552,0.2625,0.2657,0.2708,0.2786,0.2785,0.2889,0.3153,0.3342,0.3801,0.4069,0.4347,0.4642,0.4542,0.4279,0.442,0.4061,0.3961,0.4474,0.4323,0.4414,0.4415,0.4415,0.4415,0.4415,0.4415,0.2457,0.252,0.2549,0.2595,0.2618,0.2598,0.2597,0.2601,0.274,0.2973,0.3231,0.3503,0.3987,0.4387,0.4413,0.4324,0.3954,0.3839,0.3727,0.4102,0.4117,0.4131,0.3968,0.3985,0.3984,0.3049,0.3043,0.3038]},{"header":{"parameterUnit":"m.s-1","parameterCategory":2,"la1":30.2991,"la2":30.254,"lo1":-89.0895,"lo2":-89.0444,"dx":0.0017,"dy":0.0017,"nx":28,"ny":28,"refTime":"2023-01-07T03:00:00:Z","depth":"0","parameterNumber":3,"parameterNumberName":"V-component_of_CURRENTS"},"data":[0,0,0,0,0,0,0,0,0,0,0,0,0,0,0,0,0,0,0,0,0,0,0,0,0,0,0,0,0,0,0,0,0,0,0,0,0,0,0,0,0,0,0,0,0,0,0,0,0,0,0,0,0,0,0,0,0,0,-0.0356,-0.0357,0,-0.046,-0.0461,-0.0463,-0.0518,-0.0518,-0.0518,-0.0518,-0.0619,-0.0621,-0.0624,0,0,0,0,0,0,0,0,0,0,0,0,0,-0.0277,-0.0278,-0.0355,-0.0357,-0.0358,-0.046,-0.0461,-0.0463,-0.0518,-0.0518,-0.0518,-0.0518,-0.0618,-0.0621,-0.0624,0,0,0,0,0,0,0,0,0,0,0,0,0,-0.0341,-0.0278,-0.0355,-0.0397,-0.0401,-0.0459,-0.0461,-0.0463,-0.0518,-0.0518,-0.0518,-0.0518,-0.0617,-0.0621,-0.0625,-0.0651,0,0,-0.0637,-0.0639,0,0,0,0,0,0,0,0,-0.0337,-0.0344,-0.0389,-0.0394,-0.0399,-0.0475,-0.0471,-0.0525,-0.0518,-0.0475,-0.0518,-0.0518,-0.0569,-0.0577,-0.0599,-0.0655,-0.066,-0.0637,-0.064,-0.0642,-0.0643,0,0,0,0,0,0,0,-0.0332,-0.034,-0.0398,-0.0391,-0.0396,-0.0435,-0.0443,-0.0482,-0.0522,-0.0479,-0.0483,-0.0492,-0.0572,-0.0595,-0.0602,-0.0661,-0.0637,-0.0641,-0.0643,-0.0645,-0.0753,-0.0753,0,0,0,0,0,0,-0.0313,-0.0335,-0.0395,-0.0401,-0.0365,-0.0436,-0.0445,-0.0452,-0.0522,-0.0533,-0.0492,-0.0494,-0.0588,-0.0597,-0.0606,-0.0651,-0.0642,-0.0645,-0.0648,-0.0752,-0.0753,-0.0753,0,0,0,0,0,0,-0.031,-0.0317,-0.0391,-0.037,-0.0382,-0.0436,-0.0444,-0.0454,-0.0477,-0.0532,-0.0542,-0.0504,-0.0589,-0.06,-0.0643,-0.0655,-0.0647,-0.0651,-0.0752,-0.0752,-0.0753,-0.0735,0,0,0,0,0,0,-0.0308,-0.0315,-0.0313,-0.0368,-0.0382,-0.0423,-0.0444,-0.0456,-0.0482,-0.0486,-0.0546,-0.0555,-0.0589,-0.0637,-0.0647,-0.066,-0.0654,-0.0751,-0.0752,-0.0753,-0.0735,-0.0735,-0.0735,0,0,0,0,0,-0.0305,-0.0303,-0.0312,-0.0319,-0.0377,-0.0423,-0.0434,-0.0474,-0.0482,-0.0494,-0.0535,-0.0553,-0.0649,-0.0641,-0.0653,-0.0667,-0.0751,-0.0752,-0.0753,-0.0735,-0.0735,-0.0735,0,0,0,0,0,0,-0.0263,-0.031,-0.0321,-0.0332,-0.0371,-0.0431,-0.0445,-0.047,-0.0513,-0.0515,-0.0563,-0.0576,-0.0619,-0.0643,-0.0633,-0.0699,-0.0701,-0.0705,-0.0684,-0.0684,-0.0684,-0.0636,-0.0657,0,0,0,0,0,-0.0252,-0.0265,-0.0314,-0.0321,-0.0338,-0.0389,-0.0411,-0.0439,-0.0484,-0.0503,-0.0546,-0.0589,-0.0633,-0.0657,-0.0697,-0.0735,-0.0682,-0.075,-0.075,-0.075,-0.0718,-0.0647,-0.0636,-0.0756,-0.0756,-0.0756,0,0,-0.0236,-0.0264,-0.027,-0.0314,-0.0346,-0.0381,-0.0403,-0.0435,-0.0464,-0.0506,-0.0554,-0.0591,-0.0642,-0.0688,-0.0708,-0.0709,-0.0687,-0.0751,-0.075,-0.0718,-0.0647,-0.0634,-0.0623,-0.0757,-0.0757,-0.0757,0,0,-0.0228,-0.0237,-0.0255,-0.0286,-0.0332,-0.0366,-0.0372,-0.0431,-0.0455,-0.0503,-0.0541,-0.0576,-0.0649,-0.0684,-0.0712,-0.0731,-0.0688,-0.0752,-0.0716,-0.0648,-0.0636,-0.0625,-0.0531,-0.0511,-0.0753,-0.0753,-0.0753,0,-0.0206,-0.0234,-0.0265,-0.0294,-0.0313,-0.0357,-0.0379,-0.0419,-0.0484,-0.0485,-0.0513,-0.0581,-0.0644,-0.0671,-0.0695,-0.073,-0.0663,-0.0715,-0.0643,-0.0632,-0.062,-0.0526,-0.0505,-0.0752,-0.0752,-0.0752,-0.0752,0,-0.0225,-0.0241,-0.0251,-0.0301,-0.0326,-0.0348,-0.0399,-0.042,-0.0449,-0.0475,-0.0495,-0.0563,-0.058,-0.0633,-0.0683,-0.065,-0.0617,-0.0647,-0.0634,-0.0606,-0.051,-0.0488,-0.0751,-0.0751,-0.0752,-0.0752,0,0,-0.019,-0.0251,-0.0256,-0.0258,-0.0324,-0.0335,-0.0376,-0.0403,-0.0365,-0.0447,-0.0387,-0.0522,-0.0509,-0.0537,-0.0588,-0.0568,-0.0469,-0.0574,-0.0571,-0.0461,-0.0272,-0.032,-0.03,-0.0472,-0.0469,-0.0466,-0.023,0,-0.0192,-0.0226,-0.0267,-0.0281,-0.0291,-0.0327,-0.0336,-0.0358,-0.0361,-0.031,-0.037,-0.0335,-0.0486,-0.0445,-0.0466,-0.043,-0.0411,-0.0527,-0.033,-0.0323,-0.0355,-0.0278,-0.0323,-0.0122,-0.0208,-0.0205,-0.0202,0,-0.02,-0.0215,-0.0228,-0.0224,-0.0227,-0.0234,-0.0193,-0.0203,-0.0166,-0.0144,-0.0134,-0.0138,-0.0121,-0.0231,-0.0183,-0.0235,-0.0257,-0.0262,-0.0253,-0.0282,-0.0331,-0.0168,-0.0079,-0.0371,-0.0168,-0.0171,-0.0173,0,-0.0138,-0.0179,-0.0173,-0.0183,-0.0196,-0.0175,-0.0166,-0.0139,-0.0056,0.0018,0.015,0.0106,0.0222,0.0146,0.0085,-0.0005,0.0182,0.0064,-0.001,-0.0011,-0.0003,-0.0011,-0.0155,0.0096,0.0095,0.0095,0.0094,0,-0.0111,-0.01,-0.0128,-0.0116,-0.0044,-0.0083,0.0042,0.005,0.0177,0.0366,0.0282,0.0475,0.0335,0.04,0.0241,0.0225,0.0311,0.0043,0.0054,-0.0002,-0.0012,-0.0232,-0.039,0.0104,0.0102,0.01,0.0098,0,-0.0028,-0.0068,-0.0031,-0.0027,-0.0007,0.0064,0.0205,0.0334,0.0419,0.0693,0.0762,0.0857,0.0937,0.0766,0.0737,0.0513,0.0291,0.0387,0.0338,0.0333,-0.0094,-0.0248,-0.0267,-0.04,0.0355,0.0356,0.0356,0,0.0012,0.0034,0.0072,0.0146,0.0164,0.0271,0.0389,0.0459,0.0644,0.0955,0.1145,0.129,0.1423,0.1328,0.0957,0.0705,0.0402,0.0474,0.0226,-0.0088,-0.0249,-0.0352,-0.0472,0.027,0.027,0.0269,0.0269,0,0.0132,0.0148,0.0194,0.035,0.0471,0.0613,0.0792,0.0968,0.1146,0.1385,0.1745,0.1875,0.1753,0.1508,0.11,0.085,0.0237,0.0454,0.016,-0.0298,-0.0438,-0.057,0.0095,0.0266,0.0266,0.0266,0.0266,0.0266,0.0264,0.0348,0.045,0.0608,0.0752,0.0991,0.1151,0.1382,0.1698,0.2065,0.2162,0.2384,0.1933,0.1362,0.0989,0.0209,0.022,-0.007,-0.0206,-0.0261,-0.0492,0.0161,0.0293,0.0294,0.0294,0.0294,0.0295,0,0.049,0.0584,0.0725,0.0927,0.1133,0.1157,0.1462,0.1649,0.2031,0.2332,0.2587,0.2495,0.1884,0.1216,0.0201,-0.0354,-0.0589,-0.0656,-0.0847,-0.0925,-0.03,-0.0421,-0.0475,-0.0475,-0.0475,-0.0475,-0.0474,-0.0474,0.0631,0.0831,0.0898,0.1263,0.1396,0.1677,0.1851,0.2111,0.2352,0.2708,0.2841,0.2903,0.238,0.0576,-0.0707,-0.1015,-0.1413,-0.1451,-0.1634,-0.1294,-0.1253,-0.1213,-0.137,-0.1621,-0.1623,-0.2231,-0.2238,-0.2243]}],[{"header":{"parameterUnit":"m.s-1","parameterCategory":2,"la1":30.2991,"la2":30.254,"lo1":-89.0895,"lo2":-89.0444,"dx":0.0017,"dy":0.0017,"nx":28,"ny":28,"refTime":"2023-01-07T03:00:00:Z","depth":"2","parameterNumber":2,"parameterNumberName":"U-component_of_CURRENTS"},"data":[0,0,0,0,0,0,0,0,0,0,0,0,0,0,0,0,0,0,0,0,0,0,0,0,0,0,0,0,0,0,0,0,0,0,0,0,0,0,0,0,0,0,0,0,0,0,0,0,0,0,0,0,0,0,0,0,0,0,0.2408,0.241,0,0.2557,0.2559,0.2561,0.258,0.2578,0.2576,0.2574,0.2506,0.2506,0.2506,0,0,0,0,0,0,0,0,0,0,0,0,0,0.229,0.2291,0.2408,0.241,0.2411,0.2557,0.2559,0.2562,0.258,0.2578,0.2576,0.2574,0.2506,0.2506,0.2506,0,0,0,0,0,0,0,0,0,0,0,0,0,0.2383,0.2292,0.2408,0.2435,0.2439,0.2556,0.2559,0.2562,0.258,0.2578,0.2575,0.2572,0.2506,0.2506,0.2506,0.2558,0,0,0.2505,0.2505,0,0,0,0,0,0,0,0,0.2378,0.2388,0.243,0.2433,0.2438,0.2544,0.2493,0.2549,0.2581,0.2531,0.2574,0.2571,0.2498,0.2499,0.2541,0.2555,0.2552,0.2505,0.2505,0.2505,0.2505,0,0,0,0,0,0,0,0.2371,0.2383,0.2471,0.2431,0.2436,0.2491,0.25,0.2505,0.2526,0.2535,0.2536,0.2547,0.2499,0.2541,0.2539,0.2551,0.2505,0.2505,0.2505,0.2505,0.2654,0.2658,0,0,0,0,0,0,0.2341,0.2376,0.2466,0.2475,0.2396,0.2494,0.2505,0.2516,0.2531,0.2532,0.2549,0.2547,0.2543,0.2539,0.2536,0.2577,0.2505,0.2505,0.2504,0.265,0.2655,0.266,0,0,0,0,0,0,0.2338,0.2347,0.246,0.2426,0.2443,0.2498,0.251,0.252,0.2561,0.2544,0.254,0.2579,0.2541,0.2536,0.2525,0.2574,0.2505,0.2504,0.2645,0.2652,0.2657,0.2671,0,0,0,0,0,0,0.2334,0.2346,0.2359,0.2424,0.2444,0.2508,0.2513,0.2525,0.257,0.257,0.2568,0.256,0.2538,0.2526,0.2525,0.2572,0.2504,0.264,0.2648,0.2655,0.2665,0.2677,0.2687,0,0,0,0,0,0.2329,0.2377,0.2359,0.2371,0.2455,0.2508,0.2525,0.2558,0.2574,0.2588,0.2586,0.256,0.2577,0.2527,0.2526,0.2574,0.2636,0.2646,0.2655,0.266,0.2674,0.2686,0,0,0,0,0,0,0.2331,0.2384,0.2366,0.2423,0.244,0.2509,0.257,0.2571,0.2595,0.2586,0.2576,0.2568,0.2591,0.2594,0.254,0.2654,0.2619,0.2628,0.2625,0.2637,0.2648,0.2669,0.2504,0,0,0,0,0,0.2333,0.2378,0.2406,0.2441,0.2478,0.2521,0.2558,0.2544,0.2571,0.2583,0.259,0.2613,0.264,0.2637,0.2656,0.2692,0.2727,0.2743,0.2754,0.2762,0.2788,0.2875,0.2894,0.269,0.269,0.269,0,0,0.2322,0.2376,0.2384,0.2444,0.2497,0.2549,0.2541,0.258,0.26,0.2567,0.2631,0.2635,0.2659,0.2701,0.2717,0.2696,0.2843,0.2774,0.2779,0.2802,0.2886,0.2905,0.2922,0.2696,0.2695,0.2694,0,0,0.2368,0.2401,0.2462,0.2496,0.2546,0.2571,0.2578,0.263,0.2641,0.2656,0.2672,0.27,0.2735,0.2772,0.2793,0.2885,0.2895,0.2912,0.2971,0.3054,0.307,0.3085,0.3153,0.3173,0.2917,0.2917,0.2917,0,0.2353,0.2434,0.2479,0.2562,0.2596,0.2588,0.2635,0.2665,0.2682,0.2703,0.2666,0.2783,0.2779,0.2871,0.2906,0.2905,0.2952,0.2899,0.3062,0.3078,0.3093,0.3159,0.3181,0.2918,0.2918,0.2918,0.2918,0,0.2446,0.2504,0.2567,0.2657,0.2691,0.2728,0.2751,0.2775,0.2777,0.279,0.2851,0.2858,0.2931,0.295,0.2944,0.3078,0.3077,0.3055,0.3011,0.3113,0.3177,0.32,0.2921,0.292,0.292,0.2919,0,0,0.243,0.2589,0.2611,0.2642,0.273,0.275,0.282,0.2866,0.2913,0.2917,0.2997,0.3047,0.3056,0.3089,0.3103,0.317,0.3298,0.3164,0.3167,0.3199,0.3487,0.3349,0.3361,0.3299,0.3304,0.3307,0.3487,0,0.2483,0.2619,0.2691,0.2769,0.283,0.2855,0.2921,0.2941,0.297,0.3046,0.3066,0.3138,0.3111,0.3142,0.3211,0.3288,0.3363,0.3252,0.3414,0.342,0.3257,0.3384,0.3134,0.3261,0.3509,0.3513,0.3516,0,0.2574,0.2636,0.2731,0.2809,0.2843,0.288,0.2962,0.3005,0.3106,0.3134,0.3213,0.3241,0.3366,0.3306,0.349,0.3424,0.3475,0.3511,0.3518,0.3404,0.3325,0.3207,0.3293,0.3554,0.3551,0.3548,0.3546,0,0.2545,0.2676,0.2736,0.2766,0.2854,0.2888,0.2933,0.3028,0.3086,0.3209,0.3267,0.3392,0.3464,0.3559,0.3625,0.3586,0.3803,0.3752,0.3677,0.3668,0.3495,0.3462,0.389,0.389,0.3889,0.3889,0.3888,0,0.2597,0.2635,0.272,0.2737,0.2791,0.2857,0.2937,0.3006,0.313,0.3232,0.3311,0.3419,0.3534,0.365,0.3697,0.3762,0.3869,0.3727,0.3719,0.3493,0.3459,0.3739,0.3719,0.3896,0.3894,0.3893,0.3892,0,0.2571,0.2643,0.2692,0.276,0.2786,0.2816,0.2939,0.3005,0.3119,0.3265,0.3314,0.3492,0.3638,0.3713,0.3882,0.3842,0.3917,0.3904,0.3617,0.357,0.3713,0.3693,0.387,0.3866,0.3864,0.3862,0.386,0,0.2582,0.2605,0.2678,0.2708,0.2742,0.2805,0.2866,0.2991,0.308,0.3311,0.3385,0.3562,0.3637,0.3792,0.3805,0.3849,0.3908,0.3613,0.3477,0.3744,0.3719,0.3703,0.3686,0.3272,0.3265,0.326,0.3256,0,0.2555,0.2584,0.2614,0.267,0.273,0.2795,0.289,0.2943,0.3115,0.3188,0.3342,0.3411,0.3594,0.352,0.3553,0.3546,0.3576,0.3502,0.3913,0.3282,0.3185,0.3158,0.3162,0.3208,0.3213,0.3217,0.3219,0.3221,0.253,0.2543,0.2593,0.2627,0.2703,0.2747,0.2731,0.2838,0.2889,0.2957,0.3166,0.3163,0.3281,0.3179,0.3133,0.3118,0.3341,0.32,0.3216,0.3237,0.3102,0.3002,0.2968,0.2971,0.2974,0.2976,0.2978,0,0.2484,0.2504,0.2545,0.2569,0.2571,0.266,0.2719,0.2647,0.2608,0.2763,0.2795,0.2606,0.2577,0.2706,0.2623,0.2628,0.2596,0.2522,0.2471,0.2522,0.2566,0.2394,0.2074,0.207,0.2067,0.2064,0,0,0.2468,0.246,0.2458,0.2412,0.2429,0.2382,0.2365,0.2288,0.2333,0.2225,0.2228,0.243,0.2617,0.2287,0.2282,0.2171,0.2316,0.209,0.2829,0.2821,0.286,0.2986,0.2782,0,0,0,0,0]},{"header":{"parameterUnit":"m.s-1","parameterCategory":2,"la1":30.2991,"la2":30.254,"lo1":-89.0895,"lo2":-89.0444,"dx":0.0017,"dy":0.0017,"nx":28,"ny":28,"refTime":"2023-01-07T03:00:00:Z","depth":"2","parameterNumber":3,"parameterNumberName":"V-component_of_CURRENTS"},"data":[0,0,0,0,0,0,0,0,0,0,0,0,0,0,0,0,0,0,0,0,0,0,0,0,0,0,0,0,0,0,0,0,0,0,0,0,0,0,0,0,0,0,0,0,0,0,0,0,0,0,0,0,0,0,0,0,0,0,-0.0149,-0.015,0,-0.0312,-0.0314,-0.0317,-0.0384,-0.0383,-0.0382,-0.0381,-0.0432,-0.0435,-0.0437,0,0,0,0,0,0,0,0,0,0,0,0,0,-0.0094,-0.0094,-0.0148,-0.015,-0.0151,-0.0312,-0.0315,-0.0318,-0.0384,-0.0383,-0.0382,-0.0381,-0.0432,-0.0434,-0.0437,0,0,0,0,0,0,0,0,0,0,0,0,0,-0.018,-0.0094,-0.0148,-0.0199,-0.0204,-0.0311,-0.0315,-0.0318,-0.0385,-0.0383,-0.0382,-0.038,-0.0431,-0.0434,-0.0438,-0.049,0,0,-0.0448,-0.045,0,0,0,0,0,0,0,0,-0.0175,-0.0183,-0.019,-0.0195,-0.0202,-0.032,-0.0314,-0.0368,-0.0385,-0.0324,-0.0381,-0.0379,-0.0381,-0.0388,-0.0434,-0.0492,-0.0494,-0.0448,-0.0451,-0.0452,-0.0453,0,0,0,0,0,0,0,-0.0169,-0.0177,-0.0221,-0.0191,-0.0198,-0.0281,-0.0291,-0.0327,-0.0362,-0.0329,-0.0332,-0.034,-0.0384,-0.0431,-0.0435,-0.0495,-0.0448,-0.0451,-0.0454,-0.0455,-0.0626,-0.0628,0,0,0,0,0,0,-0.0125,-0.0171,-0.0215,-0.0225,-0.0176,-0.0282,-0.0293,-0.0289,-0.0365,-0.0373,-0.0341,-0.0342,-0.0426,-0.0431,-0.0437,-0.0458,-0.0452,-0.0455,-0.0457,-0.0624,-0.0627,-0.0629,0,0,0,0,0,0,-0.0123,-0.0127,-0.0209,-0.0197,-0.0212,-0.0282,-0.0279,-0.0293,-0.033,-0.0373,-0.0381,-0.036,-0.0425,-0.0432,-0.0442,-0.0461,-0.0457,-0.046,-0.0621,-0.0625,-0.0628,-0.0527,0,0,0,0,0,0,-0.0121,-0.0125,-0.0124,-0.0193,-0.021,-0.0242,-0.028,-0.0297,-0.0334,-0.0337,-0.0393,-0.0397,-0.0424,-0.0436,-0.0445,-0.0466,-0.0463,-0.0618,-0.0622,-0.0627,-0.0527,-0.0527,-0.0527,0,0,0,0,0,-0.0118,-0.0132,-0.0123,-0.0129,-0.02,-0.024,-0.0258,-0.031,-0.0335,-0.0342,-0.0374,-0.0395,-0.0475,-0.0439,-0.0449,-0.0472,-0.0615,-0.0621,-0.0626,-0.0528,-0.0527,-0.0527,0,0,0,0,0,0,-0.011,-0.0141,-0.0133,-0.0152,-0.017,-0.0248,-0.0285,-0.0307,-0.0349,-0.0345,-0.0395,-0.0401,-0.0427,-0.0474,-0.0434,-0.0547,-0.0563,-0.0571,-0.0485,-0.0485,-0.0484,-0.0504,-0.0466,0,0,0,0,0,-0.0101,-0.0111,-0.0138,-0.0144,-0.0164,-0.022,-0.0251,-0.0259,-0.03,-0.032,-0.0367,-0.0424,-0.0469,-0.0486,-0.0533,-0.0573,-0.06,-0.0613,-0.0612,-0.0611,-0.0642,-0.0659,-0.066,-0.0647,-0.0647,-0.0647,0,0,-0.0085,-0.0114,-0.011,-0.0142,-0.0183,-0.0208,-0.0238,-0.026,-0.0279,-0.0315,-0.0377,-0.041,-0.0479,-0.0522,-0.0544,-0.0552,-0.0629,-0.0618,-0.0615,-0.0648,-0.0664,-0.0665,-0.0665,-0.0651,-0.0651,-0.065,0,0,-0.0083,-0.0099,-0.0111,-0.0133,-0.0161,-0.0194,-0.0189,-0.0247,-0.0276,-0.0298,-0.0352,-0.0393,-0.0464,-0.0527,-0.0564,-0.0602,-0.0619,-0.0628,-0.0637,-0.0651,-0.065,-0.0651,-0.0661,-0.0662,-0.0632,-0.0632,-0.0632,0,-0.0064,-0.0081,-0.0117,-0.0146,-0.0165,-0.0184,-0.0192,-0.0236,-0.028,-0.0302,-0.0296,-0.0428,-0.0478,-0.0551,-0.058,-0.0598,-0.0601,-0.0611,-0.0642,-0.0644,-0.0645,-0.0656,-0.0659,-0.0628,-0.0628,-0.0629,-0.0629,0,-0.0075,-0.0086,-0.0108,-0.0142,-0.0165,-0.0171,-0.0209,-0.0233,-0.0257,-0.029,-0.0341,-0.0404,-0.048,-0.0517,-0.056,-0.0626,-0.0619,-0.062,-0.062,-0.0639,-0.0651,-0.0656,-0.0622,-0.0624,-0.0625,-0.0626,0,0,-0.004,-0.0096,-0.0106,-0.0104,-0.0154,-0.0163,-0.0205,-0.024,-0.025,-0.03,-0.0322,-0.0442,-0.0465,-0.0518,-0.0572,-0.0616,-0.063,-0.0629,-0.0632,-0.06,-0.0644,-0.0628,-0.0632,-0.0605,-0.0606,-0.0607,-0.0635,0,-0.0033,-0.0064,-0.0105,-0.0113,-0.0123,-0.0159,-0.0193,-0.0218,-0.0239,-0.0266,-0.0339,-0.0371,-0.0466,-0.0466,-0.0535,-0.0594,-0.0644,-0.0623,-0.067,-0.0673,-0.0622,-0.0639,-0.0589,-0.0609,-0.064,-0.0641,-0.0641,0,-0.0045,-0.0055,-0.0067,-0.0076,-0.0088,-0.01,-0.0127,-0.0147,-0.0196,-0.0202,-0.0253,-0.0289,-0.0388,-0.0428,-0.0567,-0.0534,-0.0611,-0.0661,-0.0662,-0.0697,-0.0668,-0.0609,-0.0617,-0.065,-0.0649,-0.0649,-0.0648,0,-0.0006,-0.0035,-0.0036,-0.0045,-0.0066,-0.0077,-0.0089,-0.0131,-0.012,-0.0148,-0.0116,-0.0228,-0.024,-0.0361,-0.0506,-0.0514,-0.0624,-0.063,-0.07,-0.0698,-0.0701,-0.0698,-0.074,-0.074,-0.0739,-0.0739,-0.0739,0,0.0006,0.0008,-0.0013,-0.0006,0.0021,-0.0024,0.0006,-0.0018,-0.002,0.002,-0.0075,-0.0052,-0.022,-0.0302,-0.0454,-0.059,-0.0582,-0.0721,-0.0712,-0.0665,-0.0659,-0.0743,-0.0743,-0.074,-0.074,-0.074,-0.074,0,0.0046,0.0018,0.0043,0.0038,0.0043,0.0066,0.0095,0.0123,0.0104,0.0164,0.0173,0.0097,0.0012,-0.0169,-0.0337,-0.0495,-0.0635,-0.0693,-0.063,-0.0615,-0.0713,-0.0709,-0.0756,-0.0756,-0.0756,-0.0756,-0.0756,0,0.0059,0.0074,0.0101,0.0139,0.0141,0.0176,0.0208,0.0195,0.024,0.0261,0.0303,0.0245,0.0235,-0.0018,-0.0281,-0.051,-0.0585,-0.0648,-0.0687,-0.0732,-0.0719,-0.0714,-0.071,-0.0641,-0.064,-0.064,-0.0639,0,0.0132,0.0135,0.0172,0.0225,0.0267,0.0333,0.0377,0.0446,0.0449,0.0528,0.0604,0.0607,0.0358,0.0154,-0.0196,-0.037,-0.0604,-0.0637,-0.0689,-0.0644,-0.0626,-0.0612,-0.0611,-0.0632,-0.0632,-0.0633,-0.0633,-0.0634,0.0205,0.0232,0.0261,0.0316,0.0379,0.0465,0.0563,0.0639,0.0761,0.0872,0.0835,0.0858,0.0546,0.0161,-0.016,-0.051,-0.0516,-0.0648,-0.065,-0.0653,-0.0633,-0.0616,-0.0616,-0.0617,-0.0617,-0.0618,-0.0618,0,0.0259,0.0276,0.0346,0.0413,0.0509,0.0509,0.0656,0.0772,0.0969,0.1051,0.1136,0.0912,0.0646,0.0284,-0.0215,-0.0528,-0.0567,-0.0623,-0.0609,-0.0613,-0.0618,-0.0598,-0.0571,-0.0572,-0.0572,-0.0573,0,0,0.0293,0.0326,0.0333,0.0484,0.0566,0.0705,0.0817,0.1002,0.1115,0.1262,0.1286,0.1211,0.0779,0.0434,0.0006,-0.028,-0.0375,-0.0334,-0.0338,-0.0275,-0.0275,-0.0597,-0.0565,0,0,0,0,0]}],[{"header":{"parameterUnit":"m.s-1","parameterCategory":2,"la1":30.2991,"la2":30.254,"lo1":-89.0895,"lo2":-89.0444,"dx":0.0017,"dy":0.0017,"nx":28,"ny":28,"refTime":"2023-01-07T03:00:00:Z","depth":"4","parameterNumber":2,"parameterNumberName":"U-component_of_CURRENTS"},"data":[0,0,0,0,0,0,0,0,0,0,0,0,0,0,0,0,0,0,0,0,0,0,0,0,0,0,0,0,0,0,0,0,0,0,0,0,0,0,0,0,0,0,0,0,0,0,0,0,0,0,0,0,0,0,0,0,0,0,0.1174,0.1175,0,0.1198,0.1198,0.1198,0.1295,0.1298,0.13,0.1303,0.1402,0.1402,0.1403,0,0,0,0,0,0,0,0,0,0,0,0,0,0.1137,0.1137,0.1174,0.1175,0.1175,0.1198,0.1198,0.1198,0.1295,0.1298,0.1301,0.1304,0.1402,0.1402,0.1403,0,0,0,0,0,0,0,0,0,0,0,0,0,0.1154,0.1138,0.1174,0.1228,0.1234,0.1198,0.1198,0.1198,0.1294,0.1298,0.1302,0.1305,0.1402,0.1402,0.1403,0.1331,0,0,0.1404,0.1405,0,0,0,0,0,0,0,0,0.1153,0.1155,0.122,0.1225,0.123,0.125,0.1221,0.1247,0.1293,0.1269,0.1303,0.1307,0.1357,0.1361,0.1353,0.1336,0.134,0.1404,0.1405,0.1405,0.1405,0,0,0,0,0,0,0,0.1152,0.1154,0.1181,0.122,0.1227,0.1225,0.1232,0.1226,0.1291,0.1271,0.1279,0.1284,0.1361,0.1352,0.1356,0.1342,0.1404,0.1405,0.1405,0.1405,0.148,0.1482,0,0,0,0,0,0,0.1153,0.1153,0.1181,0.1182,0.1203,0.1223,0.1231,0.1238,0.129,0.1301,0.1281,0.1289,0.1349,0.1356,0.136,0.1446,0.1405,0.1405,0.1406,0.1479,0.1481,0.1483,0,0,0,0,0,0,0.1152,0.1156,0.118,0.117,0.1174,0.1221,0.1227,0.1236,0.1275,0.1297,0.1311,0.1317,0.1353,0.136,0.1427,0.1445,0.1406,0.1406,0.1477,0.1479,0.1482,0.151,0,0,0,0,0,0,0.1151,0.1155,0.1169,0.117,0.1174,0.1208,0.1224,0.1234,0.1271,0.1283,0.133,0.1341,0.1356,0.1426,0.1427,0.1445,0.1406,0.1475,0.1478,0.1481,0.1506,0.1513,0.1518,0,0,0,0,0,0.115,0.1151,0.1169,0.1173,0.1189,0.1209,0.1212,0.1255,0.127,0.13,0.1347,0.1342,0.1447,0.1428,0.1429,0.1446,0.1473,0.1477,0.1481,0.1504,0.1512,0.1518,0,0,0,0,0,0,0.1152,0.1161,0.1182,0.1191,0.1223,0.1229,0.1245,0.1266,0.1316,0.1339,0.1359,0.1373,0.1444,0.1439,0.1417,0.1481,0.1459,0.1463,0.1477,0.1484,0.1489,0.1534,0.1407,0,0,0,0,0,0.1152,0.1157,0.118,0.1194,0.1206,0.1227,0.1241,0.1276,0.1311,0.1337,0.1374,0.1411,0.1444,0.1465,0.15,0.1515,0.1534,0.1531,0.1536,0.1541,0.1581,0.1614,0.1626,0.1495,0.1495,0.1495,0,0,0.1154,0.1163,0.1166,0.1195,0.1211,0.1231,0.1246,0.1283,0.1319,0.1336,0.1405,0.144,0.146,0.1508,0.1535,0.1512,0.1587,0.1546,0.155,0.1588,0.1619,0.1632,0.1643,0.1498,0.1497,0.1497,0,0,0.1146,0.1171,0.117,0.1197,0.1238,0.1255,0.1275,0.1312,0.1357,0.1418,0.1446,0.1519,0.1543,0.1584,0.1595,0.1649,0.1628,0.1632,0.1681,0.1711,0.1722,0.1732,0.1762,0.1774,0.162,0.162,0.162,0,0.1157,0.1161,0.1178,0.1192,0.1221,0.1268,0.1293,0.1326,0.1395,0.1437,0.1464,0.1559,0.1592,0.1641,0.1679,0.1666,0.1667,0.1644,0.1718,0.1728,0.1738,0.1766,0.178,0.1622,0.1621,0.1621,0.1621,0,0.1136,0.1167,0.1171,0.1205,0.1237,0.1274,0.1324,0.1382,0.144,0.1484,0.1587,0.1644,0.1705,0.1712,0.1719,0.1787,0.1761,0.1728,0.1696,0.1753,0.1779,0.1792,0.1624,0.1623,0.1623,0.1623,0,0,0.1106,0.1149,0.116,0.1194,0.1258,0.1284,0.1347,0.1424,0.1484,0.1569,0.1651,0.1738,0.1783,0.1804,0.1811,0.1851,0.1931,0.182,0.1821,0.1845,0.1988,0.1897,0.1903,0.1884,0.1887,0.1889,0.1973,0,0.1103,0.1125,0.1157,0.1216,0.1238,0.1315,0.137,0.1451,0.1537,0.1631,0.171,0.1807,0.1801,0.1854,0.1887,0.1922,0.1969,0.1912,0.1937,0.1939,0.1846,0.1917,0.1898,0.1983,0.1987,0.1989,0.199,0,0.1066,0.1101,0.1136,0.1237,0.1257,0.131,0.143,0.1494,0.1621,0.1694,0.1789,0.1855,0.1952,0.1947,0.2029,0.1976,0.201,0.2034,0.2036,0.1962,0.1875,0.192,0.2015,0.2013,0.2011,0.2009,0.2008,0,0.101,0.1092,0.1125,0.1155,0.1261,0.1323,0.1405,0.1525,0.1598,0.1758,0.1836,0.1927,0.2016,0.2047,0.2117,0.207,0.2206,0.2132,0.2088,0.2081,0.2122,0.211,0.2229,0.2229,0.2229,0.2229,0.2229,0,0.0975,0.1013,0.1115,0.114,0.1222,0.1314,0.1429,0.1518,0.166,0.1757,0.1873,0.1957,0.2052,0.2133,0.2147,0.2163,0.2224,0.2137,0.2109,0.2129,0.2118,0.213,0.2118,0.2232,0.2231,0.2231,0.223,0,0.0894,0.0948,0.1011,0.1146,0.1188,0.1259,0.1435,0.1515,0.166,0.179,0.1854,0.2008,0.2116,0.2196,0.2291,0.2216,0.2243,0.2248,0.2303,0.2269,0.2083,0.2072,0.2169,0.2166,0.2165,0.2163,0.2162,0,0.0842,0.0854,0.0996,0.1046,0.112,0.1244,0.1319,0.1488,0.157,0.1801,0.184,0.2037,0.2128,0.217,0.2253,0.2289,0.2277,0.226,0.2151,0.2121,0.2084,0.2075,0.2066,0.2159,0.2158,0.2158,0.2157,0,0.0763,0.082,0.0898,0.099,0.1082,0.1169,0.1302,0.1349,0.1549,0.1689,0.1816,0.1917,0.2052,0.2118,0.2202,0.2208,0.2233,0.2239,0.224,0.2138,0.211,0.2072,0.2066,0.2151,0.2152,0.2152,0.2153,0,0.0724,0.076,0.0856,0.0944,0.1034,0.108,0.1168,0.1286,0.1382,0.163,0.1672,0.1877,0.2038,0.2082,0.2133,0.2162,0.2111,0.2009,0.2021,0.203,0.1948,0.1889,0.1869,0,0,0,0,0,0.0673,0.071,0.0792,0.0878,0.0963,0.1007,0.1138,0.1229,0.1413,0.1463,0.157,0.17,0.1833,0.1921,0.1924,0.2061,0.2106,0.2052,0.1989,0.2114,0.2122,0.204,0,0,0,0,0,0,0.0643,0.071,0.0767,0.0799,0.0838,0.0905,0.0989,0.1114,0.1149,0.1349,0.1426,0.1581,0.1723,0.1817,0.1884,0.1914,0.1837,0.2175,0.217,0.211,0.2117,0.2123,0.2041,0,0,0,0,0]},{"header":{"parameterUnit":"m.s-1","parameterCategory":2,"la1":30.2991,"la2":30.254,"lo1":-89.0895,"lo2":-89.0444,"dx":0.0017,"dy":0.0017,"nx":28,"ny":28,"refTime":"2023-01-07T03:00:00:Z","depth":"4","parameterNumber":3,"parameterNumberName":"V-component_of_CURRENTS"},"data":[0,0,0,0,0,0,0,0,0,0,0,0,0,0,0,0,0,0,0,0,0,0,0,0,0,0,0,0,0,0,0,0,0,0,0,0,0,0,0,0,0,0,0,0,0,0,0,0,0,0,0,0,0,0,0,0,0,0,0.0138,0.0138,0,0.013,0.0129,0.0129,0.0072,0.007,0.0069,0.0068,-0.0005,-0.0006,-0.0006,0,0,0,0,0,0,0,0,0,0,0,0,0,0.011,0.0111,0.0138,0.0138,0.0138,0.013,0.0129,0.0129,0.0072,0.007,0.0069,0.0067,-0.0005,-0.0006,-0.0007,0,0,0,0,0,0,0,0,0,0,0,0,0,0.0114,0.0111,0.0138,0.0109,0.0106,0.013,0.0129,0.0129,0.0072,0.007,0.0068,0.0066,-0.0005,-0.0006,-0.0007,0.0028,0,0,-0.001,-0.001,0,0,0,0,0,0,0,0,0.0114,0.0115,0.0113,0.0111,0.0108,0.01,0.0093,0.0092,0.0073,0.0085,0.0068,0.0065,0.0026,0.0022,0.0025,0.0025,0.0021,-0.001,-0.001,-0.0011,-0.0011,0,0,0,0,0,0,0,0.0113,0.0115,0.0134,0.0114,0.011,0.0098,0.0096,0.0093,0.0065,0.0084,0.0079,0.008,0.0024,0.0027,0.0023,0.002,-0.001,-0.0011,-0.0011,-0.0012,-0.0005,-0.0004,0,0,0,0,0,0,0.0118,0.0115,0.0135,0.0134,0.0106,0.01,0.0098,0.0104,0.0067,0.006,0.0082,0.0077,0.0029,0.0024,0.002,0.0031,-0.0011,-0.0012,-0.0012,-0.0005,-0.0004,-0.0004,0,0,0,0,0,0,0.0117,0.012,0.0135,0.0124,0.0125,0.0103,0.011,0.0105,0.01,0.0066,0.0057,0.0081,0.0028,0.0022,-0.0007,0.0028,-0.0012,-0.0013,-0.0006,-0.0005,-0.0004,0.007,0,0,0,0,0,0,0.0117,0.012,0.0129,0.0125,0.0126,0.0142,0.0112,0.0107,0.0104,0.0098,0.0063,0.0054,0.0025,-0.0005,-0.0008,0.0026,-0.0014,-0.0007,-0.0006,-0.0004,0.0067,0.0074,0.008,0,0,0,0,0,0.0116,0.0143,0.013,0.0132,0.0139,0.0143,0.0142,0.0119,0.0107,0.0107,0.007,0.0055,0.0003,-0.0006,-0.0009,0.0026,-0.0008,-0.0006,-0.0004,0.0064,0.0073,0.008,0,0,0,0,0,0,0.0134,0.0139,0.0125,0.015,0.0141,0.0133,0.0148,0.0127,0.0104,0.0099,0.0057,0.0046,0.0038,0.0019,0.0011,0.0031,-0.0,0.0001,0.0053,0.0061,0.0067,0.0067,-0.0015,0,0,0,0,0,0.0144,0.0167,0.0155,0.0176,0.018,0.0165,0.0167,0.0147,0.0127,0.0116,0.0086,0.0062,0.005,0.0041,0.0023,0.0034,-0.0024,0.0056,0.0063,0.0069,0.0066,-0.001,-0.0011,0.0002,0.0002,0.0002,0,0,0.0157,0.0165,0.0175,0.0181,0.0184,0.0207,0.0161,0.0171,0.0182,0.0114,0.0118,0.0081,0.0055,0.0059,0.0056,0.0044,0.0035,0.0071,0.0076,0.007,-0.0008,-0.001,-0.0011,0.0004,0.0003,0.0003,0,0,0.0209,0.0205,0.0245,0.0244,0.0247,0.0241,0.0244,0.023,0.0214,0.0204,0.0165,0.013,0.0121,0.0097,0.009,0.0124,0.0068,0.0138,0.0176,0.0104,0.0102,0.0099,0.0023,0.0013,0.0146,0.0146,0.0146,0,0.022,0.0268,0.0254,0.029,0.0299,0.0263,0.0298,0.029,0.0259,0.0247,0.0211,0.0169,0.0139,0.0143,0.015,0.0139,0.0085,0.0151,0.0111,0.0107,0.0103,0.0025,0.0013,0.015,0.0149,0.0149,0.0148,0,0.0302,0.0332,0.036,0.0396,0.04,0.0424,0.0408,0.0398,0.037,0.0347,0.0319,0.0255,0.0224,0.0222,0.0196,0.0177,0.0142,0.0123,0.0089,0.0106,0.0023,0.0009,0.0155,0.0154,0.0153,0.0152,0,0,0.0347,0.0405,0.0416,0.0435,0.0453,0.0461,0.0487,0.0486,0.0482,0.0438,0.0417,0.0388,0.0331,0.0317,0.0276,0.0214,0.0135,0.0164,0.0158,0.0086,-0.0034,-0.001,-0.0024,0.0107,0.0105,0.0103,-0.008,0,0.0412,0.0497,0.051,0.0572,0.0604,0.0576,0.0597,0.0583,0.0545,0.0509,0.0445,0.0409,0.0381,0.0344,0.0288,0.017,0.0101,0.0185,-0.0037,-0.0044,-0.0027,-0.0038,0.0097,-0.0091,-0.0095,-0.0097,-0.0099,0,0.0489,0.0532,0.0612,0.0638,0.0651,0.068,0.0675,0.0683,0.0635,0.0596,0.0548,0.0479,0.0407,0.0353,0.0179,0.0234,0.0109,0.0008,-0.0001,-0.0016,-0.0046,-0.0112,-0.0125,-0.0123,-0.0121,-0.0119,-0.0118,0,0.0523,0.0596,0.066,0.0673,0.0707,0.0724,0.0735,0.071,0.0704,0.0639,0.0599,0.0514,0.0436,0.0296,0.0117,0.0133,-0.011,-0.0117,-0.0215,-0.0216,-0.0217,-0.0213,-0.0267,-0.0267,-0.0267,-0.0266,-0.0266,0,0.0579,0.0626,0.068,0.0709,0.0754,0.0763,0.079,0.0771,0.0743,0.073,0.0647,0.0589,0.041,0.0261,0.011,-0.0086,-0.0114,-0.0219,-0.0262,-0.018,-0.017,-0.0228,-0.0221,-0.0273,-0.0272,-0.027,-0.0269,0,0.0597,0.065,0.0704,0.0754,0.0773,0.0796,0.083,0.0831,0.0808,0.0775,0.0752,0.062,0.0438,0.0253,-0.0011,-0.0101,-0.0294,-0.0367,-0.0274,-0.0307,-0.0355,-0.0342,-0.049,-0.0491,-0.0491,-0.0492,-0.0492,0,0.0615,0.0652,0.072,0.0749,0.0776,0.0821,0.0844,0.0856,0.0856,0.0793,0.0767,0.0595,0.0491,0.0152,-0.0038,-0.0319,-0.0353,-0.0454,-0.0391,-0.0351,-0.0379,-0.0364,-0.0351,-0.0493,-0.0493,-0.0493,-0.0494,0,0.0617,0.0645,0.0677,0.0735,0.078,0.0833,0.0873,0.0882,0.0884,0.0865,0.0764,0.06,0.0388,0.0154,-0.0071,-0.0267,-0.0378,-0.0461,-0.046,-0.0402,-0.0357,-0.038,-0.0366,-0.0496,-0.0495,-0.0495,-0.0495,0,0.059,0.0603,0.0647,0.0695,0.076,0.0821,0.0854,0.086,0.0868,0.0821,0.0782,0.0577,0.0458,0.0176,-0.0026,-0.0211,-0.025,-0.0297,-0.0306,-0.0306,-0.0178,-0.0089,-0.0191,0,0,0,0,0,0.0556,0.0572,0.0605,0.0665,0.0734,0.0783,0.0853,0.0883,0.0901,0.0836,0.082,0.0634,0.0345,0.0212,0.0029,-0.0045,-0.0291,-0.0265,-0.0351,-0.0507,-0.0504,-0.038,0,0,0,0,0,0,0.0529,0.0559,0.058,0.0639,0.0681,0.076,0.0815,0.0834,0.0811,0.0803,0.0649,0.0592,0.0304,0.0442,0.0021,-0.0035,-0.0111,-0.0397,-0.04,-0.0508,-0.0506,-0.0504,-0.0375,0,0,0,0,0]}]]